TimeAKDT,TemperatureF,Dew PointF,Humidity,Sea Level PressureIn,VisibilityMPH,Wind Direction,Wind SpeedMPH,Gust SpeedMPH,PrecipitationIn,Events,Conditions,WindDirDegrees,DateUTC
12:16 AM,41.0,33.8,76,29.97,10.0,ESE,6.9,-,N/A,,Overcast,110,2012-10-17 08:16:00
12:36 AM,41.0,33.8,76,29.98,10.0,ESE,5.8,-,N/A,,Mostly Cloudy,110,2012-10-17 08:36:00
12:56 AM,39.2,33.8,81,29.98,10.0,East,8.1,-,N/A,,Scattered Clouds,100,2012-10-17 08:56:00
1:16 AM,39.2,33.8,81,29.99,10.0,ESE,6.9,-,N/A,,Scattered Clouds,110,2012-10-17 09:16:00
1:36 AM,39.2,33.8,81,30.00,10.0,SE,5.8,-,N/A,,Mostly Cloudy,130,2012-10-17 09:36:00
1:56 AM,39.2,33.8,81,30.00,10.0,ESE,5.8,-,N/A,,Overcast,120,2012-10-17 09:56:00
2:16 AM,39.2,33.8,81,30.01,10.0,ESE,4.6,-,N/A,,Overcast,120,2012-10-17 10:16:00
2:36 AM,39.2,33.8,81,30.01,10.0,SE,8.1,-,N/A,,Overcast,130,2012-10-17 10:36:00
2:56 AM,39.2,33.8,81,30.01,10.0,SE,5.8,-,N/A,,Overcast,140,2012-10-17 10:56:00
3:16 AM,39.2,33.8,81,30.01,10.0,East,5.8,-,N/A,,Overcast,100,2012-10-17 11:16:00
3:36 AM,39.2,35.6,87,30.01,10.0,ESE,5.8,-,N/A,,Overcast,110,2012-10-17 11:36:00
3:56 AM,39.2,33.8,81,30.00,10.0,East,5.8,-,N/A,,Mostly Cloudy,100,2012-10-17 11:56:00
4:16 AM,39.2,33.8,81,29.99,10.0,East,6.9,-,N/A,,Overcast,90,2012-10-17 12:16:00
4:36 AM,39.2,33.8,81,29.99,10.0,ESE,5.8,-,N/A,,Overcast,110,2012-10-17 12:36:00
4:56 AM,39.2,33.8,81,29.99,10.0,ESE,9.2,-,N/A,,Overcast,120,2012-10-17 12:56:00
5:16 AM,39.2,33.8,81,29.98,10.0,ESE,6.9,-,N/A,,Overcast,110,2012-10-17 13:16:00
5:36 AM,39.2,33.8,81,29.98,10.0,ESE,9.2,-,N/A,,Overcast,110,2012-10-17 13:36:00
5:56 AM,39.2,33.8,81,29.97,10.0,East,11.5,-,N/A,,Overcast,100,2012-10-17 13:56:00
6:16 AM,39.2,33.8,81,29.96,10.0,ESE,9.2,-,N/A,,Overcast,110,2012-10-17 14:16:00
6:36 AM,39.2,33.8,81,29.95,10.0,East,10.4,-,N/A,,Overcast,100,2012-10-17 14:36:00
6:56 AM,39.2,33.8,81,29.94,10.0,East,11.5,-,N/A,,Overcast,100,2012-10-17 14:56:00
7:16 AM,39.2,33.8,81,29.93,10.0,ESE,10.4,-,N/A,,Mostly Cloudy,110,2012-10-17 15:16:00
7:36 AM,39.2,33.8,81,29.92,10.0,East,9.2,-,N/A,,Overcast,100,2012-10-17 15:36:00
7:56 AM,39.2,33.8,81,29.92,10.0,East,11.5,16.1,N/A,,Mostly Cloudy,100,2012-10-17 15:56:00
8:16 AM,39.2,33.8,81,29.90,10.0,East,12.7,19.6,N/A,,Overcast,100,2012-10-17 16:16:00
8:36 AM,39.2,35.6,87,29.90,10.0,East,13.8,18.4,N/A,,Overcast,100,2012-10-17 16:36:00
8:56 AM,39.2,35.6,87,29.88,10.0,ESE,11.5,19.6,N/A,,Overcast,110,2012-10-17 16:56:00
9:16 AM,39.2,35.6,87,29.87,8.0,East,10.4,17.3,N/A,,Overcast,100,2012-10-17 17:16:00
9:36 AM,39.2,35.6,87,29.86,10.0,ESE,10.4,18.4,N/A,,Mostly Cloudy,110,2012-10-17 17:36:00
9:56 AM,39.2,35.6,87,29.84,8.0,ESE,9.2,-,N/A,,Overcast,110,2012-10-17 17:56:00
10:16 AM,39.2,35.6,87,29.83,10.0,ESE,12.7,19.6,N/A,,Overcast,110,2012-10-17 18:16:00
10:36 AM,39.2,35.6,87,29.81,9.0,ESE,13.8,19.6,N/A,,Overcast,110,2012-10-17 18:36:00
10:56 AM,39.2,35.6,87,29.79,8.0,ESE,13.8,18.4,N/A,,Overcast,110,2012-10-17 18:56:00
11:16 AM,39.2,35.6,87,29.78,7.0,ESE,13.8,24.2,N/A,,Overcast,110,2012-10-17 19:16:00
11:36 AM,39.2,35.6,87,29.76,7.0,ESE,15.0,23.0,N/A,,Overcast,120,2012-10-17 19:36:00
11:56 AM,39.2,33.8,81,29.76,8.0,ESE,13.8,21.9,N/A,,Overcast,110,2012-10-17 19:56:00
12:16 PM,39.2,35.6,87,29.74,7.0,ESE,11.5,17.3,N/A,,Overcast,120,2012-10-17 20:16:00
12:36 PM,39.2,35.6,87,29.73,9.0,ESE,10.4,16.1,N/A,,Overcast,120,2012-10-17 20:36:00
12:56 PM,39.2,35.6,87,29.72,8.0,ESE,10.4,-,N/A,,Overcast,120,2012-10-17 20:56:00
1:16 PM,39.2,35.6,87,29.70,8.0,ESE,13.8,20.7,N/A,,Overcast,120,2012-10-17 21:16:00
2:16 PM,39.2,35.6,87,29.66,10.0,ESE,13.8,26.5,N/A,,Overcast,120,2012-10-17 22:16:00
2:36 PM,39.2,35.6,87,29.66,10.0,ESE,17.3,31.1,N/A,,Overcast,120,2012-10-17 22:36:00
2:56 PM,39.2,35.6,87,29.66,10.0,ESE,13.8,26.5,N/A,,Overcast,120,2012-10-17 22:56:00
3:16 PM,39.2,35.6,87,29.65,10.0,ESE,10.4,18.4,N/A,,Overcast,120,2012-10-17 23:16:00
3:36 PM,39.2,35.6,87,29.65,10.0,ESE,9.2,19.6,N/A,,Overcast,120,2012-10-17 23:36:00
3:56 PM,39.2,35.6,87,29.65,7.0,ESE,10.4,16.1,N/A,,Overcast,120,2012-10-17 23:56:00
4:16 PM,41.0,35.6,81,29.65,8.0,SE,10.4,-,N/A,,Overcast,130,2012-10-18 00:16:00
4:36 PM,41.0,37.4,87,29.66,9.0,South,5.8,-,N/A,,Overcast,180,2012-10-18 00:36:00
4:56 PM,41.0,35.6,81,29.66,9.0,South,8.1,-,N/A,,Overcast,180,2012-10-18 00:56:00
5:16 PM,39.2,35.6,87,29.66,8.0,South,5.8,-,N/A,,Overcast,170,2012-10-18 01:16:00
5:36 PM,39.2,35.6,87,29.66,8.0,SSE,4.6,-,N/A,,Overcast,160,2012-10-18 01:36:00
5:56 PM,39.2,35.6,87,29.66,7.0,SE,3.5,-,N/A,,Overcast,140,2012-10-18 01:56:00
6:16 PM,39.2,35.6,87,29.66,10.0,ESE,4.6,-,N/A,,Overcast,120,2012-10-18 02:16:00
6:36 PM,37.4,33.8,87,29.66,10.0,East,5.8,-,N/A,,Overcast,100,2012-10-18 02:36:00
6:56 PM,37.4,33.8,87,29.66,10.0,SE,6.9,-,N/A,,Overcast,140,2012-10-18 02:56:00
7:16 PM,37.4,33.8,87,29.67,10.0,SE,5.8,-,N/A,,Overcast,130,2012-10-18 03:16:00
7:36 PM,37.4,33.8,87,29.66,10.0,ESE,4.6,-,N/A,,Overcast,110,2012-10-18 03:36:00
7:56 PM,37.4,33.8,87,29.67,10.0,East,5.8,-,N/A,,Overcast,100,2012-10-18 03:56:00
8:16 PM,37.4,33.8,87,29.68,10.0,East,6.9,-,N/A,,Overcast,90,2012-10-18 04:16:00
8:36 PM,37.4,33.8,87,29.68,10.0,East,6.9,-,N/A,,Overcast,80,2012-10-18 04:36:00
8:56 PM,37.4,33.8,87,29.69,10.0,East,6.9,-,N/A,,Overcast,80,2012-10-18 04:56:00
9:16 PM,37.4,33.8,87,29.69,10.0,Calm,Calm,-,N/A,,Overcast,0,2012-10-18 05:16:00
9:36 PM,37.4,33.8,87,29.69,10.0,East,3.5,-,N/A,,Overcast,90,2012-10-18 05:36:00
9:56 PM,37.4,33.8,87,29.70,10.0,East,6.9,-,N/A,,Overcast,80,2012-10-18 05:56:00
10:16 PM,35.6,32.0,87,29.71,10.0,ENE,4.6,-,N/A,,Partly Cloudy,70,2012-10-18 06:16:00
10:36 PM,33.8,30.2,87,29.72,10.0,East,5.8,-,N/A,,Scattered Clouds,80,2012-10-18 06:36:00
10:56 PM,33.8,30.2,87,29.72,10.0,East,4.6,-,N/A,,Mostly Cloudy,80,2012-10-18 06:56:00
11:16 PM,33.8,30.2,87,29.72,10.0,East,5.8,-,N/A,,Partly Cloudy,80,2012-10-18 07:16:00
11:36 PM,33.8,30.2,87,29.73,10.0,East,5.8,-,N/A,,Clear,80,2012-10-18 07:36:00
11:56 PM,33.8,30.2,87,29.75,10.0,East,5.8,-,N/A,,Clear,80,2012-10-18 07:56:00